Location: Cutler
(25.6150°N, 80.3110°W)
Time: 06:12:52
(UTC-04:00)

Vanguard 1 Rocket - Visible Passes

Search period start: 25 April 2018 00:00
Search period end: 05 May 2018 00:00
Orbit: 654 x 4223 km, 34.3° (Epoch: 24 April)

Date Brightness Start Highest point End Pass type
(mag) Time Alt. Az. Time Alt. Az. Time Alt. Az.
25 Apr 11.0 03:57:31 25° S 04:11:05 39° SE 04:29:15 10° E visible
25 Apr 10.3 06:17:29 10° SW 06:43:06 80° SSE 06:58:03 10° ENE visible
26 Apr 11.3 02:50:31 24° SSE 02:56:22 26° SE 03:13:44 10° E visible
26 Apr 10.6 05:07:48 20° SW 05:28:35 63° SE 05:46:06 10° ENE visible
27 Apr 11.6 01:43:26 15° SE 01:43:26 15° SE 01:53:14 10° ESE visible
27 Apr 10.9 04:00:43 31° S 04:13:46 48° SE 04:33:07 10° ENE visible
27 Apr 10.3 06:20:03 10° WSW 06:46:03 89° SSE 07:01:21 10° ENE visible
28 Apr 11.1 02:53:33 31° SSE 02:59:01 34° SE 03:18:28 10° E visible
28 Apr 10.5 05:10:50 22° SW 05:31:20 73° SSE 05:49:27 10° ENE visible
29 Apr 11.4 01:46:19 21° SE 01:46:19 21° SE 02:00:37 10° E visible
29 Apr 10.7 04:03:35 36° SSW 04:16:21 57° SE 04:36:41 10° ENE visible
29 Apr 10.4 06:22:52 10° WSW 06:49:02 82° NNW 07:04:39 10° ENE visible
30 Apr 10.9 02:56:16 39° SSE 03:01:30 42° SE 03:22:33 10° ENE visible
30 Apr 10.5 05:13:32 23° SW 05:34:06 83° SSE 05:52:43 10° ENE visible
01 May 11.2 01:48:52 27° SE 01:48:52 27° SE 02:06:07 10° E visible
01 May 10.6 04:06:08 40° SSW 04:18:54 66° SE 04:40:03 10° ENE visible
02 May 11.7 00:41:25 12° ESE 00:41:25 12° ESE 00:44:34 10° ESE visible
02 May 10.7 02:58:40 46° SSE 03:03:53 50° SE 03:26:14 10° ENE visible
02 May 10.5 05:15:55 22° WSW 05:36:56 89° NNW 05:55:58 10° ENE visible
03 May 11.0 01:51:07 35° SE 01:51:07 35° SE 02:10:39 10° E visible
03 May 10.5 04:08:22 41° SW 04:21:29 76° SSE 04:43:17 10° ENE visible
04 May 11.5 00:43:31 18° ESE 00:43:31 18° ESE 00:51:46 10° E visible
04 May 10.5 03:00:45 53° S 03:06:14 59° SE 03:29:39 10° ENE visible
04 May 10.5 05:17:59 20° WSW 05:39:53 82° NNW 05:59:13 10° ENE visible
